Preview of NWS' New Version of Forecast
This preview is not operational and should not be used for support decisions.

Regional Weather Roundup (RWR)

Issued by National Weather Service (NWS)

                            
000
ASUS43 KBIS 181710
RWRND 

NORTH DAKOTA REGIONAL WEATHER ROUNDUP
NATIONAL WEATHER SERVICE BISMARCK ND
1200 PM CDT TUE JUN 18 2019

NOTE: "FAIR" INDICATES FEW OR NO CLOUDS BELOW 12,000 FEET WITH NO
SIGNIFICANT WEATHER AND/OR OBSTRUCTIONS TO VISIBILITY.


NDZ001>003-009>011-017-181800-
NORTHWEST NORTH DAKOTA
  
CITY           SKY/WX    TMP DP  RH WIND       PRES   REMARKS
WILLISTON      FAIR      70  48  45 SE10      30.01F                  
MINOT          MOSUNNY   69  47  45 NE7       30.03F                  
MINOT AFB      MOSUNNY   68  47  48 SE5       30.02F                  
$$
 
NDZ018>021-031>035-040>046-181800-
SOUTHWEST NORTH DAKOTA
  
CITY           SKY/WX    TMP DP  RH WIND       PRES   REMARKS
BISMARCK       PTSUNNY   69  50  50 E7        30.03F                  
DICKINSON      PTSUNNY   64  52  64 E15       30.00F                  
GARRISON         N/A     64  48  56 SE10      30.03F                  
HETTINGER ARPT PTSUNNY   67  56  67 E9        30.01F                  
$$
 
NDZ004>008-012>016-024-026-027-054-181800-
NORTHEAST NORTH DAKOTA
  
CITY           SKY/WX    TMP DP  RH WIND       PRES   REMARKS
GRAND FORKS    FAIR      69  50  50 E6        30.02S                  
GRND FRKS AFB  MOSUNNY   69  52  54 E9        30.03F                  
DEVILS LAKE    FAIR      66  50  56 SE8       30.05F                  
$$
 
NDZ022-023-025-028>030-036>039-047>053-181800-
SOUTHEAST NORTH DAKOTA
  
CITY           SKY/WX    TMP DP  RH WIND       PRES   REMARKS
FARGO          CLOUDY    66  52  60 N8        30.01S                  
JAMESTOWN      MOSUNNY   69  51  52 E7        30.02F                  
$$